GFSSW_925_temp_102.txt.gz
Temp
11 12 13 15 17 18 17 18 18 19 18 17 16 16 16 18 20 20 19 20 20 20 21 21 22 22 22 21 22 22 19 18 21 23 24 25 24 23 22 23 23 23 23 25 25
11 14 17 17 18 18 18 17 18 18 18 18 17 18 18 19 19 20 21 20 21 20 21 20 20 20 19 21 20 20 18 20 23 23 23 24 25 24 22 22 22 22 24 25 25
13 16 17 18 18 18 18 18 19 19 19 18 17 17 17 18 18 21 21 21 21 21 20 19 20 21 21 21 21 21 19 22 23 23 24 24 24 25 22 21 21 22 23 22 23
14 17 17 18 18 18 18 18 19 19 18 18 17 18 19 18 20 22 22 21 21 21 21 21 20 20 20 20 20 19 21 21 22 23 23 23 24 24 22 24 23 22 21 20 20
17 17 17 18 18 18 18 18 19 19 19 18 18 19 19 20 21 22 22 21 21 21 21 19 19 19 18 18 19 19 21 21 22 21 22 23 23 24 23 23 22 22 22 22 22
17 17 17 17 18 19 19 19 19 19 19 18 18 19 19 21 23 22 22 22 21 21 21 20 19 20 19 19 18 19 19 19 20 20 21 22 22 24 24 22 21 21 21 21 20
17 17 17 18 19 19 19 19 19 19 19 18 17 18 18 22 23 22 22 22 22 21 20 21 20 20 19 18 19 20 18 19 20 20 21 23 21 22 24 22 21 21 21 20 20
17 17 18 18 18 19 19 19 20 20 19 18 17 17 20 23 23 23 23 22 22 21 21 21 21 20 19 19 19 19 18 17 19 20 22 21 19 21 22 23 22 20 20 21 20
16 17 17 18 19 19 19 20 21 21 19 18 18 18 21 23 23 23 23 22 22 22 21 21 21 19 18 18 16 17 16 17 18 21 21 21 19 21 20 21 22 21 20 21 22
16 17 17 18 19 19 20 20 20 20 19 18 18 19 22 22 23 23 23 23 21 20 20 20 17 17 16 16 16 16 16 17 17 20 20 18 18 19 20 21 20 22 20 21 22
17 18 18 18 19 19 21 20 15 17 17 18 19 20 21 23 23 23 23 22 21 20 19 18 17 16 17 18 18 18 17 17 18 19 19 19 19 18 19 19 19 19 20 19 22
17 18 19 19 19 18 19 15 15 15 14 17 18 19 22 22 21 22 23 22 20 19 19 17 17 19 19 19 19 18 17 17 17 19 19 18 18 18 19 19 19 20 19 20 21
17 18 19 19 18 17 16 16 16 16 13 18 20 21 22 22 21 21 21 21 20 19 18 18 19 20 20 18 18 18 17 17 17 18 18 18 18 18 19 19 19 19 19 20 20
17 18 19 19 19 17 16 16 16 16 16 22 22 23 23 21 21 23 22 22 20 20 18 18 20 19 19 18 19 17 19 18 18 17 16 18 16 16 17 18 19 17 16 18 18
17 17 17 17 16 16 16 16 16 15 18 23 23 24 23 23 22 23 22 21 20 20 19 18 18 19 18 19 19 18 19 17 18 17 14 16 14 15 17 18 17 16 16 17 18
17 17 17 17 16 16 16 16 16 18 19 22 23 21 21 22 23 22 21 20 20 19 19 18 19 20 19 19 19 19 17 15 15 15 14 14 15 14 14 14 15 16 16 16 19
18 18 17 17 17 16 16 15 17 17 21 20 20 20 19 20 22 21 19 17 17 16 16 15 18 18 20 18 18 18 15 13 13 14 14 13 14 14 15 15 14 15 15 15 14
18 19 18 18 17 16 16 16 18 20 19 20 20 19 21 20 20 19 19 17 18 17 14 14 15 19 19 18 18 17 15 14 13 14 14 14 14 15 15 15 14 15 14 14 14
17 18 18 18 17 16 14 16 18 19 19 19 18 19 18 19 19 18 17 18 18 18 17 14 15 17 18 19 19 18 14 13 12 13 13 15 16 15 17 16 15 14 14 14 14
15 15 17 17 17 17 14 17 19 20 20 19 18 18 18 17 18 17 18 18 19 19 17 17 14 17 18 19 18 18 14 15 14 15 13 16 17 16 17 15 14 14 14 14 13
14 14 17 17 17 13 16 16 19 20 20 19 18 18 18 17 17 18 19 19 19 18 18 16 15 15 17 18 17 16 16 16 14 15 15 13 15 17 16 16 15 13 13 12 13
13 16 17 17 15 12 16 18 19 19 19 19 18 18 18 18 17 18 19 19 17 18 17 17 14 13 16 17 17 19 19 17 15 15 15 15 15 15 14 14 14 14 14 13 13
12 13 16 17 16 15 16 19 19 19 19 19 18 18 18 18 17 17 17 18 16 17 18 17 14 12 15 16 16 17 17 19 15 14 15 14 16 15 14 14 13 13 13 13 13
11 15 14 12 12 16 17 18 18 19 18 18 18 18 17 17 17 16 16 17 16 16 17 16 14 14 13 15 15 15 16 17 16 14 15 15 17 17 15 14 14 13 13 13 13
10 13 15 14 14 15 17 18 18 18 18 18 18 16 16 16 15 16 16 14 16 16 16 14 14 14 14 15 15 15 15 18 18 17 17 17 17 16 15 14 14 14 13 13 13
10 11 11 13 16 15 16 16 17 18 18 17 17 16 16 15 15 14 15 14 14 14 14 12 13 13 14 17 16 17 18 18 18 18 17 16 16 15 14 14 14 13 13 13 13
12 13 12 13 14 14 14 16 17 17 17 17 16 15 15 15 14 13 12 13 14 14 13 13 12 12 13 14 15 18 18 18 17 16 17 17 17 15 13 13 14 14 13 13 12

GFSSW_925_temp_105.txt.gz
Temp
14 16 17 18 18 17 18 18 19 18 19 19 19 18 19 20 21 21 20 20 20 20 20 21 22 21 21 20 20 20 18 17 20 22 23 24 24 23 22 22 22 23 23 22 20
16 17 17 18 18 18 18 18 18 19 19 19 18 18 19 20 20 20 21 21 20 20 21 19 18 19 18 20 19 19 17 19 21 22 22 23 24 23 23 22 22 22 23 21 19
17 17 17 18 17 18 18 18 19 19 18 17 18 19 20 19 20 21 22 21 21 21 21 20 19 19 20 20 20 19 18 21 22 22 22 23 23 23 22 21 21 22 21 20 19
17 17 17 18 18 18 18 18 19 19 18 18 19 19 19 18 20 22 22 21 21 21 21 20 19 19 19 18 19 19 20 20 20 22 21 22 23 23 21 23 22 21 21 21 20
17 17 18 18 18 18 19 19 19 19 19 19 19 19 19 20 22 23 22 21 21 21 20 19 18 18 18 18 18 18 20 20 20 19 20 21 21 22 22 22 22 21 21 21 21
17 17 17 18 18 18 19 19 19 19 19 19 19 19 19 20 23 23 22 22 21 21 20 20 19 19 18 18 18 19 18 18 18 19 19 21 21 22 23 22 21 21 20 20 19
17 18 18 18 18 19 19 19 19 20 19 19 19 19 19 22 23 22 22 22 21 21 20 21 20 19 19 17 19 18 18 18 19 20 19 20 20 21 21 22 20 20 20 20 19
17 17 18 18 19 19 19 20 21 21 20 20 19 19 20 23 23 23 22 22 22 21 21 21 20 19 18 18 18 18 17 16 19 20 21 21 18 20 21 21 21 19 18 19 19
17 17 18 18 19 19 19 20 20 20 20 19 19 18 22 23 23 23 22 22 22 21 21 20 20 18 17 17 15 16 16 16 17 19 19 20 18 19 20 20 20 19 18 19 19
17 17 18 19 19 19 20 20 19 20 19 18 18 19 22 22 23 23 23 22 21 20 19 19 15 16 15 15 15 16 15 16 16 18 19 17 16 17 18 18 18 18 18 17 20
17 17 18 18 19 20 20 20 16 18 17 18 18 19 20 22 22 22 23 22 21 19 18 17 16 16 17 17 17 16 16 15 16 17 17 17 17 17 17 17 17 17 17 17 18
17 17 19 18 18 19 20 14 15 15 16 17 16 17 20 21 21 21 22 21 20 19 18 16 16 18 18 18 18 17 16 16 16 18 18 16 17 17 17 18 18 18 17 17 17
17 17 19 18 18 18 16 15 15 15 15 18 19 20 21 21 21 21 22 21 20 19 18 17 18 19 19 18 18 17 16 16 16 17 17 16 15 16 18 17 18 18 16 16 16
17 17 18 19 18 16 15 15 15 15 16 21 22 23 22 21 21 22 21 21 20 19 17 17 18 18 17 18 18 16 18 18 17 16 15 15 14 15 17 16 16 15 14 14 14
17 17 17 18 17 16 16 15 15 15 18 22 22 23 21 21 22 21 21 20 20 19 19 17 18 18 18 19 18 17 17 16 15 14 14 14 13 13 14 14 14 14 14 15 14
17 17 17 17 17 16 16 15 15 17 19 21 21 20 19 20 21 21 20 19 19 18 18 17 17 19 19 18 18 18 16 14 14 13 13 13 13 13 13 14 14 14 13 13 14
18 18 18 17 16 16 16 15 17 17 19 20 19 19 18 19 20 20 18 16 16 15 15 14 17 17 19 17 17 16 14 14 12 12 15 13 13 13 13 13 14 13 12 13 13
18 18 18 18 17 16 16 16 18 19 18 19 19 18 20 18 19 17 18 16 17 17 13 14 15 18 18 18 17 16 14 14 12 13 13 14 14 15 15 15 15 14 14 15 15
18 18 18 17 17 16 14 16 17 18 19 18 17 17 17 18 18 17 17 17 17 17 16 14 14 16 17 18 18 17 13 13 13 13 12 14 17 15 17 16 15 14 13 13 13
15 16 17 17 17 16 15 17 18 19 19 18 17 18 17 17 17 16 17 18 18 18 16 16 13 16 16 18 17 17 13 14 13 15 15 14 15 15 16 15 15 15 12 12 12
14 14 16 16 17 13 17 16 18 20 19 18 18 17 17 17 16 17 18 18 17 17 17 16 14 14 16 18 17 15 15 14 14 14 14 13 15 15 14 15 14 13 11 11 11
12 15 16 16 15 11 15 16 19 19 19 19 18 17 17 17 17 17 17 18 16 17 17 16 13 12 15 16 16 16 18 15 13 13 15 14 14 14 12 13 14 13 12 11 11
11 11 15 16 16 14 16 19 18 18 18 18 18 18 17 17 17 16 17 17 15 16 17 16 13 12 15 16 16 16 16 16 14 13 14 12 15 15 13 12 12 12 12 12 11
10 14 12 11 11 15 17 17 18 18 18 18 18 17 17 17 16 16 16 17 14 15 16 15 13 13 13 15 15 14 15 15 15 13 14 14 15 15 15 14 13 12 12 12 11
9 13 14 13 13 14 15 17 17 17 17 16 16 17 16 16 15 15 16 15 15 15 14 13 13 13 13 13 14 14 14 14 17 17 16 16 16 15 13 14 14 13 12 12 11
9 11 11 13 13 14 14 15 16 17 16 17 16 15 14 14 15 15 15 14 14 15 14 11 13 12 12 15 15 14 16 17 17 17 16 16 16 14 13 14 14 13 12 12 11
11 11 12 12 12 14 13 15 16 17 17 16 15 14 14 14 13 13 13 13 14 14 12 12 11 11 12 13 14 17 18 18 17 16 16 16 16 14 14 14 14 14 12 11 11

GFSSW_925_temp_108.txt.gz
Temp
17 18 17 17 18 18 18 18 19 18 19 19 20 20 20 20 21 21 20 20 20 20 20 22 21 20 20 19 19 18 17 16 19 21 22 24 23 23 22 21 22 22 22 21 19
17 17 17 18 18 18 18 18 19 18 19 19 20 19 20 21 21 20 21 21 21 20 21 20 19 18 17 19 18 18 16 18 19 21 21 22 23 23 23 22 21 22 21 19 18
17 17 18 18 18 18 19 19 19 19 19 19 19 20 20 20 20 21 22 21 21 21 21 20 19 19 19 18 18 18 17 19 20 21 21 21 21 23 22 21 21 22 20 19 18
17 17 17 17 18 18 18 19 19 19 19 20 20 20 20 19 20 23 22 21 21 21 21 20 18 18 17 18 18 19 18 19 19 20 20 20 21 22 21 21 22 21 20 19 18
16 16 17 18 18 19 19 19 19 19 19 20 20 20 20 20 21 22 22 21 21 21 20 19 18 18 17 17 17 17 18 19 19 18 18 19 19 20 21 21 21 21 20 19 19
17 17 17 18 18 18 19 19 19 19 20 20 20 20 20 20 23 22 22 22 21 21 20 20 19 19 18 17 17 18 18 17 17 18 18 19 19 20 21 21 20 20 19 19 19
17 17 17 18 18 19 19 19 20 20 20 20 20 20 20 22 23 23 22 22 21 21 20 20 19 19 18 17 18 18 17 17 19 19 19 19 19 19 20 20 20 19 19 19 19
17 17 18 19 19 19 19 20 20 21 20 20 20 19 20 23 23 23 22 22 21 21 20 20 20 19 18 17 17 17 17 16 18 18 20 20 17 19 19 19 19 19 18 18 18
17 17 18 19 19 19 19 19 20 20 20 20 19 19 22 23 23 22 22 22 22 21 20 20 19 17 17 16 14 15 15 15 16 18 18 19 17 18 19 18 18 17 17 17 17
17 17 18 18 19 19 19 19 19 20 19 19 19 20 22 21 22 22 22 22 21 19 19 18 15 15 15 14 15 15 15 15 14 17 18 16 15 16 17 16 16 16 16 16 16
17 17 17 18 19 20 19 19 16 18 18 18 19 19 20 22 21 22 22 21 20 19 18 16 15 16 16 16 16 16 15 15 16 17 16 16 15 16 17 16 15 15 15 16 16
17 17 17 18 18 20 19 13 14 15 19 17 16 16 19 20 20 21 22 21 19 18 17 15 16 18 17 17 17 16 15 15 16 17 16 16 16 17 16 17 17 17 16 15 15
17 17 17 18 18 18 16 14 15 15 17 19 19 20 20 21 20 20 21 20 19 18 17 16 18 18 18 17 16 17 16 15 16 16 16 15 15 15 16 16 16 15 14 14 14
17 17 17 18 18 16 15 15 15 15 16 20 21 22 21 20 21 21 21 20 20 19 17 17 18 18 17 17 17 15 18 16 15 14 14 15 13 14 14 15 14 13 12 12 12
17 17 17 17 17 16 16 15 15 15 18 21 21 22 19 21 21 21 20 20 19 19 18 18 17 17 17 18 17 17 16 15 15 13 13 14 13 12 12 14 14 14 14 13 13
17 17 18 17 17 16 15 15 15 18 19 20 20 19 19 19 19 19 19 17 18 17 17 16 16 17 18 18 17 17 16 14 13 12 13 13 12 12 13 13 13 14 14 15 14
17 17 17 17 16 16 15 15 18 17 19 19 19 18 17 18 19 17 17 15 15 15 13 13 17 16 18 17 16 15 13 12 12 11 12 13 13 12 14 14 14 14 14 15 14
16 17 17 17 17 16 15 17 20 19 18 19 18 17 19 17 18 17 17 15 16 15 13 13 15 17 17 18 17 14 14 12 15 14 13 14 14 14 14 16 15 14 14 14 14
16 17 17 17 16 16 15 17 18 17 19 18 17 17 17 17 17 16 16 16 17 16 16 13 14 15 16 17 16 16 13 13 13 10 12 11 16 14 14 14 14 14 13 13 12
14 15 16 16 16 16 15 17 18 18 18 18 18 17 17 16 16 15 17 17 17 17 15 16 12 15 15 17 15 15 13 14 11 11 14 13 13 15 14 13 14 13 12 11 11
13 13 16 16 16 13 16 16 17 19 18 17 16 17 17 17 16 16 17 17 16 17 15 15 13 14 15 16 16 14 15 14 13 13 13 15 14 15 13 13 12 12 12 11 11
11 14 15 15 14 10 14 16 18 18 18 18 17 17 17 17 16 16 17 17 16 16 16 15 11 11 15 16 15 16 16 13 12 13 12 13 14 13 12 13 13 13 12 10 11
11 10 14 15 15 13 15 18 18 17 17 17 17 17 17 17 16 16 16 16 14 16 16 15 12 12 14 16 15 15 15 15 13 11 13 12 14 13 13 12 12 12 11 11 11
9 13 11 10 10 14 16 17 17 17 17 17 17 17 16 16 15 16 16 16 15 15 15 14 12 13 13 15 14 14 14 14 13 12 13 12 14 15 12 13 12 11 11 11 11
7 12 13 12 12 13 15 16 16 16 16 16 16 16 15 15 15 15 15 15 15 14 13 12 13 12 12 12 12 13 13 13 14 15 15 15 15 15 13 13 13 12 11 11 11
9 10 10 12 12 13 14 14 16 16 15 16 15 15 14 15 14 15 14 14 14 14 13 11 13 11 11 14 13 13 13 13 14 16 15 15 15 14 13 13 12 11 11 11 10
10 11 11 11 11 13 13 15 15 16 16 16 14 13 13 13 13 13 13 13 14 13 12 12 11 11 12 12 12 15 16 17 17 15 15 15 15 14 14 14 13 12 11 11 10

GFSSW_925_temp_111.txt.gz
Temp
17 17 18 18 18 18 18 19 19 18 19 19 20 20 21 21 21 21 20 20 20 20 21 21 21 20 20 19 19 19 20 19 20 21 23 23 23 24 23 24 23 24 23 22 19
17 17 17 18 18 18 18 18 19 19 18 19 20 20 21 21 21 21 21 21 20 20 21 20 19 19 18 19 19 19 19 19 20 21 22 22 22 23 23 24 24 23 20 19 19
17 16 17 18 18 18 19 19 19 19 18 19 20 21 20 21 20 21 21 21 21 21 21 20 19 19 19 18 18 18 19 19 21 21 21 21 22 23 23 22 23 24 23 19 19
16 17 18 18 18 18 18 19 19 19 19 20 20 21 21 21 20 22 22 21 21 21 21 20 19 18 18 19 18 19 19 19 20 20 20 20 22 22 22 23 24 24 23 20 20
16 17 17 18 18 18 19 19 19 19 20 20 20 21 21 20 21 22 22 22 21 21 20 19 19 18 18 18 18 18 19 19 19 18 18 19 19 21 21 22 23 21 22 20 20
16 17 17 18 18 18 18 19 19 20 20 20 20 21 21 20 23 22 22 22 21 21 20 19 19 18 18 18 18 18 18 18 18 19 19 19 20 20 22 21 21 21 22 22 20
17 17 18 18 18 18 19 20 20 20 20 20 20 21 20 21 23 22 22 22 21 20 20 19 19 19 18 18 18 18 18 18 19 20 19 19 20 20 21 20 21 21 20 21 20
16 17 18 18 18 18 19 20 20 20 21 20 20 20 21 23 23 23 22 22 21 20 20 19 19 18 18 18 18 18 17 18 20 18 20 20 19 20 21 20 21 21 20 20 20
17 17 18 18 18 19 20 19 20 20 20 20 20 20 22 23 23 22 22 21 21 20 19 19 19 17 17 17 17 16 18 17 17 18 19 19 19 20 20 20 19 21 20 20 20
17 17 17 18 18 19 19 18 19 19 19 19 19 20 22 22 22 22 22 21 20 19 19 18 16 18 16 17 17 17 17 17 17 18 18 18 18 19 19 18 19 19 20 19 19
17 17 17 19 19 19 18 19 18 18 18 19 19 20 20 21 21 22 21 21 20 18 18 16 18 18 18 17 17 17 16 16 18 18 17 18 18 18 19 18 18 19 19 19 19
17 17 18 19 19 18 18 14 14 15 19 16 17 17 19 19 20 21 21 20 19 18 17 17 18 18 17 17 17 17 17 17 17 18 17 17 17 17 18 17 17 17 17 17 17
17 17 18 18 18 18 16 14 15 15 18 20 19 19 20 21 20 20 20 19 19 18 17 17 19 18 18 18 18 18 17 17 16 16 16 16 17 17 17 16 17 17 15 16 15
16 18 18 19 18 16 15 15 15 15 17 20 21 21 21 20 21 21 20 19 19 18 16 16 18 18 18 17 17 16 17 17 16 16 16 16 15 16 16 16 16 16 16 15 15
16 17 18 18 17 16 15 15 15 15 20 21 20 21 19 20 20 21 19 19 19 18 18 18 17 17 17 19 17 18 17 16 15 15 15 15 14 16 15 14 13 15 16 16 16
16 17 17 17 17 16 16 15 15 18 20 20 20 18 19 18 18 18 18 17 17 17 15 16 15 16 18 17 17 17 16 15 14 14 16 14 13 16 14 13 13 15 15 15 16
16 17 17 16 16 16 16 15 18 19 19 20 19 17 17 17 18 16 17 16 16 16 14 14 17 16 16 17 17 16 15 15 17 15 16 15 15 15 12 14 14 14 14 14 14
15 17 17 16 16 16 15 16 21 19 18 18 17 18 18 16 17 16 16 16 16 15 14 14 17 16 16 17 17 15 14 14 14 14 15 15 15 14 13 14 15 14 13 13 13
15 16 16 16 16 15 14 18 19 18 18 18 17 17 17 17 16 16 16 16 16 16 16 14 15 15 16 16 16 16 15 14 13 12 14 14 16 13 13 14 14 14 13 12 12
13 14 15 15 15 15 15 17 18 17 17 18 19 17 17 16 17 15 16 17 17 16 15 15 14 15 15 15 15 16 14 15 13 13 15 16 15 15 12 12 13 13 12 12 12
13 12 14 14 15 13 16 15 16 17 18 17 16 16 17 17 16 15 16 17 16 16 15 14 14 15 15 16 16 16 16 15 14 14 15 15 16 15 13 12 13 13 13 11 11
11 14 13 14 14 9 14 16 17 17 17 17 16 17 16 15 16 16 16 16 15 15 16 14 12 13 16 15 14 15 15 14 15 15 14 14 16 14 13 12 13 13 13 12 11
10 10 13 14 14 13 14 17 17 17 17 16 16 17 16 16 16 15 16 16 15 16 16 14 13 14 17 16 15 15 15 15 13 12 14 15 18 14 13 13 13 13 13 12 12
8 12 10 10 10 14 15 16 17 17 16 16 16 16 16 16 15 16 16 16 15 15 15 14 12 14 16 16 14 14 14 14 14 14 15 15 16 16 14 13 13 13 12 12 12
7 11 12 11 11 13 15 15 16 16 16 16 16 16 15 15 15 14 14 15 15 14 13 13 14 11 12 13 12 13 14 13 14 14 16 16 15 16 14 14 13 12 12 12 12
7 8 8 11 12 13 13 14 16 16 15 15 16 15 14 15 15 15 14 14 14 14 13 11 14 11 12 13 12 13 13 13 13 14 14 14 15 15 13 13 13 12 12 12 11
9 9 11 11 11 13 12 14 15 15 15 16 15 14 13 14 14 14 13 13 14 14 12 12 12 12 14 12 12 16 15 14 15 15 16 16 16 13 13 13 13 12 12 12 11

GFSSW_925_temp_114.txt.gz
Temp
14 15 17 18 18 18 18 18 19 19 19 19 20 21 21 21 21 21 23 21 20 20 21 21 21 21 22 23 23 23 24 24 25 25 26 27 26 27 27 27 27 28 28 26 24
16 16 17 17 17 19 19 19 19 19 19 19 21 21 21 21 21 24 21 21 21 21 22 23 23 23 23 23 23 24 23 24 24 25 25 26 26 26 25 27 27 27 27 24 23
16 17 17 18 18 18 18 19 19 19 19 20 21 20 20 21 24 24 22 21 21 21 20 21 22 23 23 23 23 23 23 23 24 24 25 24 25 26 25 25 26 26 28 25 23
17 17 17 18 18 18 19 19 19 19 20 20 20 21 21 21 24 23 22 21 21 21 22 23 24 23 23 23 22 22 23 23 23 24 23 23 25 24 25 25 27 27 28 27 25
17 17 17 18 18 18 19 19 19 19 20 20 21 21 21 25 24 22 22 22 21 21 22 23 23 22 23 22 22 22 23 23 23 23 23 23 23 23 24 26 26 27 26 26 25
17 17 18 18 18 18 19 19 20 20 20 20 21 22 22 25 23 23 22 22 21 22 22 22 23 22 22 22 22 22 22 22 23 23 23 22 23 23 25 25 25 25 25 26 26
16 17 18 18 18 19 19 20 21 21 21 21 21 21 24 25 23 22 22 21 21 21 23 21 21 22 22 22 21 22 21 23 23 23 22 22 22 23 25 25 25 25 26 25 26
17 17 17 18 18 19 19 19 20 20 21 20 21 21 25 23 23 22 22 22 20 20 21 20 20 22 22 22 22 22 22 22 24 22 23 22 22 24 25 24 24 25 26 25 25
17 17 18 18 18 19 19 19 19 20 20 20 20 22 25 23 24 22 21 23 21 21 20 20 21 22 22 22 24 22 22 22 22 23 22 22 21 23 24 23 23 24 25 25 25
17 17 18 19 18 19 19 19 20 20 20 20 20 24 25 25 22 21 21 21 23 22 22 23 22 23 23 23 22 21 22 22 22 22 22 21 21 22 22 22 22 23 24 25 25
17 17 18 19 19 19 20 19 23 23 22 23 23 23 24 23 21 23 22 23 23 24 23 22 23 23 22 22 21 21 21 21 22 22 20 21 20 21 20 21 21 21 23 24 23
18 18 18 18 18 19 19 20 16 16 23 20 20 21 20 20 24 24 23 24 23 23 23 23 23 22 21 21 21 22 22 22 22 20 20 20 20 20 20 20 20 20 20 21 22
17 18 19 18 19 18 17 15 15 15 24 22 22 23 23 22 23 24 23 23 22 22 22 22 23 21 21 22 22 23 21 20 20 20 20 19 20 20 21 20 20 20 20 21 21
17 18 19 19 19 16 17 15 15 15 25 23 23 23 23 22 23 22 21 22 23 22 21 22 21 21 22 22 21 22 21 20 19 20 20 19 21 21 20 18 18 19 18 19 20
15 17 18 18 17 19 16 16 16 17 24 23 23 22 23 23 22 23 20 23 22 22 21 22 21 20 21 22 20 21 19 19 19 20 20 20 18 20 18 14 15 16 16 17 18
15 17 17 17 17 16 16 16 17 24 24 22 23 22 23 22 22 22 22 22 20 20 20 21 20 20 21 21 20 20 20 19 19 20 22 18 17 19 14 13 13 14 15 15 15
16 17 17 17 19 16 16 18 24 24 22 22 22 21 21 21 21 21 21 21 21 21 21 21 21 20 19 21 21 21 22 20 21 20 20 19 19 17 14 14 13 14 14 14 14
15 17 17 16 16 16 16 23 23 23 23 20 20 20 22 20 20 21 21 21 20 20 20 20 22 20 20 20 19 19 19 17 17 19 18 19 16 17 14 16 15 15 14 13 13
14 16 15 15 16 15 21 24 25 23 22 21 20 21 21 20 20 21 20 20 20 20 20 20 20 20 19 19 19 20 19 17 15 16 17 19 21 17 16 18 16 15 13 12 12
13 14 15 15 15 17 22 23 23 21 20 20 22 21 22 21 21 21 20 20 19 19 19 19 19 19 19 19 19 20 18 19 19 17 18 21 20 17 16 17 17 17 14 12 11
14 19 14 14 15 20 23 24 21 20 20 21 21 20 21 20 20 20 20 19 19 19 18 19 18 21 19 20 20 20 20 19 19 19 19 20 21 19 18 16 16 17 15 12 11
14 19 13 14 19 19 22 21 19 20 19 19 20 20 21 20 20 20 20 20 18 19 19 18 19 20 20 19 18 19 19 19 20 19 19 18 21 19 18 17 17 16 15 13 12
17 16 13 14 20 20 19 19 20 19 19 19 19 19 19 19 20 19 19 17 17 18 19 18 19 20 21 19 19 19 19 18 18 18 20 19 21 19 18 18 16 16 16 14 14
16 18 15 15 16 20 20 20 19 18 19 19 19 19 18 18 19 19 19 17 17 17 15 17 18 19 20 21 19 19 19 19 18 19 21 21 21 20 18 18 17 15 16 15 14
15 18 19 16 16 18 20 21 20 18 18 18 17 18 18 17 17 18 18 18 16 16 16 18 18 18 19 19 18 18 18 18 18 20 20 20 19 20 19 18 17 16 16 16 15
16 16 13 18 17 18 17 19 20 19 19 19 19 19 18 19 19 19 19 18 19 16 17 16 18 17 18 18 16 17 18 18 18 18 19 19 19 20 18 18 18 17 16 16 15
13 11 18 16 17 17 19 21 19 20 19 20 20 18 17 20 20 19 19 19 19 18 17 17 17 18 20 18 18 20 20 19 19 19 21 20 21 19 18 18 18 17 17 16 15

GFSSW_925_temp_117.txt.gz
Temp
15 16 15 17 17 18 19 19 19 19 19 19 20 21 22 22 22 22 25 22 21 21 21 23 24 24 24 25 25 26 25 26 27 28 28 29 28 30 30 28 30 30 30 28 23
15 15 16 17 18 18 19 19 19 19 19 19 20 21 21 22 23 26 22 21 21 21 24 25 25 25 26 25 25 25 25 26 27 27 27 28 28 28 28 28 29 30 30 28 25
15 16 17 17 18 18 18 19 19 20 19 20 20 20 21 22 25 26 22 22 22 22 24 24 25 25 25 25 25 26 24 26 26 26 26 26 26 27 27 26 28 29 30 28 27
16 17 17 18 18 18 19 19 20 20 20 20 20 21 21 20 26 25 23 22 22 22 25 25 26 25 24 25 25 24 26 25 25 25 25 25 26 26 26 26 28 28 29 29 29
15 17 17 18 18 18 19 19 19 20 20 20 21 21 21 26 26 23 23 22 23 24 25 25 25 25 25 25 25 24 25 25 25 25 25 25 24 25 25 27 28 28 28 28 29
16 17 16 18 18 19 19 19 20 20 21 21 21 21 23 27 24 24 23 23 23 24 25 25 25 25 24 25 24 25 24 24 25 25 25 24 25 25 26 27 26 27 27 28 28
16 16 16 17 18 19 19 20 20 21 21 21 21 20 26 26 24 24 23 24 23 23 24 24 24 24 25 25 25 24 23 25 25 25 24 24 24 25 26 27 26 27 28 28 28
17 17 17 18 18 19 20 19 20 21 21 21 21 21 27 24 24 24 24 25 23 23 23 23 23 24 24 25 25 24 25 25 26 25 25 23 23 26 27 26 25 26 27 28 28
16 17 17 19 18 19 19 19 20 20 21 21 22 25 27 25 26 24 24 25 24 23 23 23 23 24 25 25 26 26 25 25 25 26 24 24 23 25 26 25 24 25 26 27 28
15 17 18 19 19 19 19 19 20 20 21 20 22 25 27 27 25 24 25 23 25 25 24 25 25 25 27 25 23 23 23 24 24 25 24 23 23 24 23 23 23 24 25 26 27
16 16 18 18 19 19 19 19 24 24 24 25 26 26 26 25 24 26 25 25 26 26 25 25 25 25 24 24 24 24 24 24 25 24 22 23 22 22 23 22 22 22 23 25 26
17 18 18 18 19 19 20 25 21 20 25 24 24 25 24 24 25 27 25 26 26 25 26 25 25 25 24 24 24 24 24 24 24 24 23 23 22 23 23 22 21 22 22 23 24
16 18 18 19 19 19 20 19 17 18 26 25 25 25 25 24 26 26 25 25 25 25 25 24 25 24 24 24 24 24 23 22 22 23 23 23 22 22 22 21 19 19 20 21 22
15 17 18 19 19 20 21 17 17 18 26 25 25 25 25 25 24 25 24 24 25 24 24 25 24 23 24 24 23 23 23 21 22 22 23 23 22 22 21 19 18 18 17 19 20
15 17 18 18 20 22 19 17 17 20 26 25 25 24 25 24 25 25 23 25 24 24 23 24 23 23 23 23 23 23 23 21 22 22 23 23 21 22 20 16 16 16 16 16 16
14 16 18 18 19 18 17 17 19 24 26 24 25 24 24 24 25 25 25 25 24 23 23 23 23 22 23 23 23 23 24 22 22 23 22 22 19 21 17 15 14 15 14 14 14
15 16 17 16 22 17 17 20 25 25 25 25 24 24 24 24 24 24 24 23 23 23 24 25 24 23 22 23 24 23 23 21 22 22 22 22 20 19 18 16 15 14 13 13 13
15 17 17 17 17 17 19 24 24 27 27 24 24 23 24 23 24 23 24 24 23 23 23 23 23 23 23 22 21 22 21 19 16 20 20 22 19 19 19 18 17 14 13 12 12
13 17 17 18 16 17 22 24 27 28 26 24 23 24 24 23 23 24 24 23 22 22 22 22 23 23 21 22 22 22 22 20 17 19 19 22 22 21 21 21 19 16 13 12 12
16 19 20 16 16 19 23 24 27 26 24 25 25 25 25 24 23 24 23 22 22 21 22 22 21 23 22 21 21 22 21 21 21 18 20 24 22 21 21 19 19 16 13 12 12
16 20 17 15 17 21 23 26 26 24 24 24 25 24 25 24 24 24 23 21 21 21 21 22 21 23 22 22 22 22 23 23 21 21 20 22 22 22 21 19 19 17 13 12 11
18 19 15 16 20 23 24 26 23 23 22 22 24 24 24 23 23 23 23 23 21 21 21 21 21 22 23 22 21 21 22 22 21 21 22 21 22 22 21 20 19 16 15 14 13
18 20 14 16 21 23 24 23 22 22 22 22 23 23 23 23 22 22 22 19 20 20 21 21 22 22 22 21 21 22 22 21 21 21 22 21 23 22 21 20 18 18 15 14 14
19 18 17 16 21 23 24 23 22 22 23 22 23 22 21 21 21 20 20 19 19 19 16 18 21 21 23 23 22 21 22 21 21 21 23 23 23 22 21 20 19 18 16 14 14
17 20 22 18 19 21 24 24 23 20 22 22 21 22 22 21 20 19 20 19 18 17 18 19 20 21 22 22 21 21 21 21 20 21 21 23 22 23 21 21 19 18 18 17 15
17 18 21 22 21 21 20 22 23 23 21 20 22 21 22 21 21 20 21 21 21 19 19 19 20 20 20 22 20 20 21 21 21 21 21 22 22 23 22 21 20 19 18 17 17
14 19 19 19 22 21 22 22 23 24 21 23 22 22 20 22 22 23 22 22 21 20 20 20 20 20 22 22 22 22 23 22 22 22 22 22 23 22 20 20 20 19 19 18 17

GFSSW_925_temp_123.txt.gz
Temp
16 17 18 18 18 18 18 18 18 19 19 19 20 21 21 22 23 23 22 22 23 23 23 23 23 24 24 23 24 22 18 18 21 22 22 23 23 24 25 25 26 25 23 22 23
17 17 18 18 18 18 18 18 19 19 19 19 20 20 21 21 23 23 23 23 23 23 24 24 24 24 21 23 22 20 18 20 23 22 22 23 22 22 23 22 23 23 20 19 19
17 17 17 17 18 18 18 18 19 19 19 19 20 20 21 21 21 23 24 23 24 24 23 23 24 24 23 23 23 22 19 22 22 24 23 22 22 22 21 21 22 22 22 19 19
17 17 17 16 16 17 18 19 19 18 19 20 20 20 21 21 22 24 24 24 24 24 24 25 23 23 23 22 24 22 22 22 23 24 23 22 23 22 22 21 21 22 23 22 21
16 17 17 17 17 17 18 19 19 19 20 20 20 21 21 21 23 24 24 24 24 24 24 24 22 22 21 21 22 22 22 23 23 22 23 23 22 21 21 22 22 23 23 22 23
16 17 17 17 17 18 19 19 19 20 20 21 21 21 20 21 25 24 24 24 24 24 24 23 23 23 22 22 21 23 22 22 22 22 23 23 22 22 22 22 23 25 24 22 22
16 16 17 17 18 18 19 18 19 19 20 21 21 21 20 22 25 25 25 25 24 24 23 23 23 21 21 21 23 23 21 21 22 23 23 22 21 21 21 21 20 20 19 20 21
16 17 17 18 18 18 18 19 19 20 20 20 20 20 20 25 25 25 25 25 24 24 23 23 23 22 22 22 22 22 21 20 23 23 22 22 20 21 20 20 19 19 18 19 20
16 17 18 18 18 18 19 19 19 20 20 20 20 20 22 25 25 25 25 25 25 24 24 24 23 21 22 20 18 19 19 20 21 22 23 21 20 20 20 19 18 17 17 18 18
16 17 18 18 18 19 20 20 19 20 20 19 20 21 24 25 25 25 25 25 24 24 23 22 20 20 18 17 17 19 19 20 20 22 22 21 20 18 18 17 16 15 15 16 17
15 17 18 18 19 19 20 20 19 19 19 21 23 23 25 25 25 25 25 25 24 23 21 21 19 19 21 22 21 20 20 19 20 22 22 21 18 18 17 17 16 15 14 15 16
15 16 17 18 19 19 18 17 19 19 19 22 23 24 25 25 24 24 26 24 23 21 21 20 20 22 23 22 21 21 19 19 19 21 21 20 19 18 17 16 16 16 14 14 15
16 16 16 18 19 20 20 19 19 19 18 23 23 24 24 25 24 24 25 23 22 21 22 21 22 24 23 21 21 20 20 19 19 20 21 21 18 18 17 17 16 15 14 14 14
16 17 16 17 18 19 20 19 19 19 18 22 23 24 24 24 23 25 24 23 22 22 22 21 23 23 22 21 20 19 21 21 20 18 18 21 16 17 18 17 15 14 13 15 13
15 16 17 14 15 17 19 19 19 19 19 23 23 25 23 23 23 23 24 23 22 22 21 21 22 21 21 21 21 19 20 20 20 19 18 18 15 16 16 15 15 13 14 13 13
15 14 14 16 15 18 19 18 19 18 19 23 22 22 22 23 24 22 22 22 23 22 22 20 22 21 21 21 21 21 20 19 19 17 16 18 17 15 15 15 13 14 13 12 12
13 14 13 14 16 18 18 17 17 18 24 22 22 22 22 22 23 23 22 21 20 19 20 21 21 22 22 20 20 18 16 12 15 14 15 19 16 15 16 15 13 13 12 12 12
13 12 14 14 18 18 18 16 17 21 22 23 23 22 22 22 22 22 22 20 22 21 18 19 19 20 22 21 20 19 17 12 12 12 13 16 15 16 17 14 13 14 12 12 11
12 12 12 18 18 17 14 14 17 21 23 22 22 21 21 22 22 22 20 20 20 20 19 19 20 21 21 21 20 20 17 18 14 16 13 15 18 18 17 15 14 12 12 11 11
11 12 14 18 18 16 13 17 19 23 23 23 21 21 19 20 20 19 20 21 20 21 20 20 18 21 20 20 20 20 18 17 13 13 15 17 17 16 15 15 14 11 11 11 11
11 11 16 18 17 12 13 16 20 22 24 22 21 21 21 20 19 20 20 20 20 19 20 20 18 20 20 19 19 18 18 19 16 15 15 15 15 16 16 14 14 11 12 11 11
10 11 17 18 13 11 14 18 21 22 22 23 23 23 22 20 20 20 20 20 20 19 19 19 16 17 20 20 20 20 20 18 14 17 15 15 15 16 15 13 14 12 12 11 11
9 11 16 17 15 14 16 18 20 21 20 21 21 23 23 20 21 21 18 18 18 19 19 18 16 16 17 18 19 19 19 20 17 15 16 14 15 15 14 13 13 12 12 12 12
9 8 11 14 15 16 16 18 19 20 20 21 21 21 21 21 20 19 16 18 18 18 18 17 16 16 16 18 19 19 20 18 17 14 16 16 17 16 15 13 12 12 12 13 12
9 7 11 12 13 14 15 18 19 19 20 20 20 19 19 19 18 18 16 16 17 17 17 16 15 17 17 17 19 19 19 19 17 16 17 18 19 17 15 14 13 12 12 13 13
9 9 10 12 15 14 14 16 19 20 19 19 18 18 18 17 18 16 15 15 15 15 15 15 16 18 18 18 18 18 18 18 18 17 17 17 17 17 15 13 13 12 13 13 12
8 9 9 10 14 15 15 16 19 20 19 21 19 19 18 19 18 17 17 16 16 14 14 15 15 15 16 17 19 17 18 18 18 18 17 17 17 16 15 15 14 13 14 13 12

GFSSW_925_temp_126.txt.gz
Temp
18 18 18 18 18 19 19 19 19 20 20 20 20 20 21 21 23 23 22 23 23 23 23 23 23 24 24 22 23 20 17 17 21 21 21 22 22 23 23 23 24 21 21 21 20
17 17 18 18 19 19 19 19 19 19 19 20 20 20 20 21 22 22 23 23 23 23 24 23 23 23 20 22 21 18 16 19 21 22 21 22 22 21 21 20 22 22 21 21 20
17 18 18 18 19 19 19 18 18 19 19 19 20 20 20 20 20 23 24 24 24 23 23 22 22 22 22 22 21 20 18 20 21 21 22 22 21 22 21 20 21 21 22 20 19
17 18 17 17 18 19 19 18 19 19 19 19 20 20 20 20 21 24 24 24 24 23 23 23 22 22 21 21 22 21 21 22 22 23 22 22 22 21 21 20 21 20 21 20 19
16 17 18 18 17 18 19 18 19 19 20 20 20 20 20 20 21 25 24 24 24 24 23 23 21 21 21 21 21 21 22 22 22 21 21 21 21 21 21 20 20 21 21 21 20
16 16 17 18 18 18 19 18 19 19 20 20 20 20 19 20 25 25 24 24 24 24 23 22 22 22 21 21 21 22 22 21 21 22 21 22 22 22 21 19 19 19 18 18 18
16 16 17 18 19 18 18 18 19 18 20 20 20 20 19 21 25 25 24 24 24 24 22 23 22 21 21 21 22 22 21 20 22 22 22 22 21 20 20 19 17 16 16 17 17
16 16 17 17 18 19 19 18 18 19 19 20 20 18 19 25 25 24 24 24 24 24 23 23 23 21 21 21 20 21 19 19 21 22 22 21 19 19 18 17 16 15 14 16 16
16 16 16 17 18 18 19 19 19 19 19 19 19 19 20 24 24 25 25 24 24 24 23 23 23 21 20 18 17 17 18 19 20 22 22 21 19 17 17 17 16 15 15 15 16
15 16 17 17 18 18 20 20 20 20 19 18 18 19 21 23 25 25 25 25 24 23 22 22 18 18 17 16 17 18 18 19 18 21 21 19 18 17 16 16 15 14 13 14 15
15 15 17 18 18 18 20 20 18 19 18 19 21 21 23 24 25 24 25 24 23 22 20 20 19 19 19 19 20 20 19 18 19 21 20 19 17 17 17 16 15 14 13 14 14
16 15 16 17 18 18 18 17 19 18 17 20 20 21 24 25 23 23 24 23 21 20 20 19 18 19 21 22 21 20 19 18 18 20 19 19 17 17 16 16 16 14 13 13 13
15 15 15 17 18 18 18 19 19 19 17 20 21 22 23 24 23 22 23 22 21 21 21 19 22 22 22 21 20 20 19 19 19 19 20 18 16 17 17 16 16 14 13 13 13
15 15 14 17 18 17 18 19 18 18 16 20 21 23 23 23 23 24 24 22 22 21 21 20 22 22 21 21 20 19 19 20 20 18 17 19 16 16 16 15 15 13 14 13 13
13 15 15 13 15 16 18 18 18 18 18 22 22 24 21 22 22 22 23 22 21 21 20 21 21 21 21 21 20 19 20 19 19 18 18 18 15 14 14 15 13 14 14 13 13
13 13 13 14 13 18 18 18 18 17 18 21 21 21 21 22 22 21 22 22 22 21 20 20 21 20 20 21 20 20 19 16 16 16 16 18 16 15 14 14 12 14 13 13 12
13 13 12 13 15 17 17 16 16 16 22 21 20 21 21 20 21 21 20 20 19 19 20 20 20 21 21 20 20 17 15 11 15 13 15 17 15 15 15 13 13 13 12 12 12
12 12 12 13 16 16 16 15 16 19 20 22 21 20 20 20 21 21 20 19 20 19 17 18 18 20 21 20 19 19 16 11 13 12 12 15 14 16 15 13 13 13 12 12 11
11 11 10 15 16 14 12 13 16 18 21 21 21 20 19 21 20 21 19 18 18 19 18 18 19 20 21 20 19 19 16 16 13 13 12 14 17 17 14 13 12 12 12 11 11
11 10 11 14 15 14 11 15 17 20 22 21 20 19 18 19 20 19 18 19 19 19 18 18 19 19 20 20 20 19 17 16 12 13 15 15 16 15 16 14 12 12 12 11 11
10 9 13 15 15 11 12 13 18 20 21 21 20 19 19 19 18 18 19 20 19 18 19 19 17 19 19 18 18 17 17 17 15 14 15 15 15 14 15 14 11 12 12 11 11
9 10 12 13 12 10 12 14 19 20 20 21 21 21 19 18 18 18 18 19 18 17 18 18 15 16 18 19 20 18 18 16 14 16 14 13 15 16 14 12 11 11 12 11 10
9 10 10 12 11 10 13 16 18 19 19 20 20 20 21 18 19 19 18 17 17 18 17 16 15 16 17 18 18 19 18 17 14 13 14 13 15 14 12 12 11 10 10 11 11
9 10 9 9 10 11 13 15 17 18 19 20 20 20 21 20 18 16 16 17 17 17 18 17 14 16 17 18 17 18 18 17 16 13 14 13 16 14 12 12 11 10 10 12 11
9 9 9 9 9 11 13 16 16 18 19 18 18 19 19 18 18 16 15 16 16 17 16 15 15 15 15 16 17 18 18 17 16 15 16 17 15 15 14 12 11 11 11 11 12
9 8 8 10 10 11 12 14 16 18 18 18 19 18 17 17 18 16 14 14 15 14 15 13 16 17 17 17 16 17 17 16 16 16 15 16 15 16 15 11 11 10 11 11 11
9 8 9 9 10 11 11 12 15 17 19 20 19 18 17 18 18 18 17 15 15 13 13 13 13 14 16 16 18 17 16 16 16 16 17 16 17 14 13 14 12 11 12 12 11

GFSSW_925_temp_129.txt.gz
Temp
13 16 17 17 18 18 19 19 19 19 19 19 20 20 21 22 23 23 22 23 23 23 22 23 23 23 22 21 21 18 16 16 19 21 20 21 21 22 22 21 22 21 21 20 19
14 15 16 16 17 19 19 19 19 19 19 19 20 20 20 22 23 22 24 24 23 23 23 22 22 22 19 21 19 17 15 18 19 21 20 21 21 21 21 20 22 21 21 20 19
16 16 16 16 17 19 19 19 19 19 19 19 20 20 20 21 21 22 24 24 23 23 22 21 21 21 21 21 21 18 18 19 21 20 20 21 21 22 21 20 20 20 21 20 19
14 16 16 17 17 18 19 19 19 19 20 20 20 20 20 20 21 24 24 24 23 23 22 22 21 21 20 21 21 21 20 21 21 22 22 21 21 21 21 20 18 19 19 19 18
15 15 16 17 17 17 18 18 19 19 20 20 20 20 20 20 20 25 24 24 23 23 23 22 21 20 20 20 20 20 21 22 21 20 20 21 21 20 20 19 18 18 17 16 16
15 16 16 16 17 18 18 18 18 19 19 20 20 20 20 20 24 25 24 23 23 23 22 22 21 21 20 20 20 21 21 20 20 20 21 22 21 21 20 18 17 17 16 16 16
15 15 16 16 17 17 18 18 17 18 19 20 20 19 18 21 25 25 24 24 24 23 22 22 22 21 20 21 21 21 20 19 21 21 21 21 21 20 17 17 16 15 14 15 15
15 16 16 16 17 17 18 18 18 18 19 19 19 19 19 24 24 24 24 23 23 23 23 23 22 21 21 20 19 19 18 18 20 20 21 21 18 18 16 16 16 15 13 14 14
15 15 16 17 17 18 18 19 18 18 18 19 19 18 19 23 23 24 24 23 23 23 23 22 22 19 19 17 16 16 18 19 18 21 21 20 19 18 16 16 16 14 13 14 15
15 15 15 16 17 18 18 19 19 18 18 18 18 18 20 21 24 24 24 24 23 22 21 21 17 17 16 16 17 18 18 18 17 20 20 19 17 17 17 16 15 14 13 13 14
15 15 15 16 17 18 19 18 17 17 18 19 19 19 22 23 24 23 24 23 22 21 20 19 18 17 18 17 19 19 18 18 18 19 20 18 17 16 16 16 14 13 12 13 12
13 14 15 16 17 17 18 15 19 19 18 18 18 19 21 24 22 22 23 22 20 19 19 18 17 18 19 19 19 19 19 18 18 18 19 17 17 17 16 16 15 13 13 13 12
13 13 14 16 16 17 16 18 18 18 17 18 18 20 21 22 22 21 21 20 20 20 18 17 20 20 20 20 20 19 18 18 18 18 19 18 16 16 17 16 15 13 13 14 14
13 13 13 15 16 16 17 18 18 18 15 19 20 21 21 22 22 22 22 22 21 19 18 18 20 21 20 20 18 19 18 19 19 18 16 18 15 16 15 14 13 12 13 14 13
12 13 12 13 13 14 17 17 18 18 18 21 20 22 20 21 21 22 22 22 20 20 19 19 20 20 20 20 19 19 19 18 18 17 17 17 14 15 14 14 13 13 14 13 13
11 12 12 13 12 16 16 17 17 16 18 20 20 20 20 21 21 21 22 21 20 20 20 19 20 20 19 20 19 19 19 16 14 14 15 17 16 14 14 13 12 14 14 13 12
10 11 11 12 14 15 16 15 15 15 21 20 19 19 19 19 20 20 19 19 18 18 18 19 20 20 20 20 19 17 15 11 15 12 14 15 14 14 15 13 12 13 13 12 12
10 10 11 12 13 15 15 14 14 17 18 21 20 18 19 19 19 19 18 18 18 18 16 17 18 19 20 20 18 18 15 10 13 12 11 14 13 15 14 13 13 13 13 12 11
9 10 10 12 12 12 11 12 16 17 20 20 20 19 18 19 19 19 17 17 17 17 18 16 18 19 20 19 18 17 16 15 12 12 11 13 15 16 12 13 12 13 13 12 11
8 9 10 13 12 12 10 14 15 18 20 20 19 19 17 17 19 18 16 18 18 17 18 17 18 19 19 19 18 18 15 15 11 13 15 13 15 14 14 13 12 13 12 12 11
8 10 11 11 10 10 12 13 16 18 20 20 19 18 18 17 17 17 18 19 18 17 17 16 17 18 19 17 16 16 16 14 14 13 14 14 14 13 15 13 12 12 12 11 11
8 9 10 10 8 6 11 14 16 19 19 19 19 19 18 17 17 17 18 18 16 16 17 17 14 15 18 18 18 17 16 15 13 15 13 12 14 15 13 12 12 12 12 11 10
8 10 9 9 9 7 9 14 16 18 19 18 19 19 18 17 18 17 17 17 15 16 16 15 15 15 17 17 17 18 17 15 13 12 13 13 15 12 11 11 11 11 11 11 11
7 9 9 8 8 11 9 12 14 16 17 18 19 19 19 18 17 15 16 17 17 17 17 16 13 16 16 18 15 16 16 15 15 13 13 13 16 13 12 11 10 10 10 12 11
7 9 10 9 9 9 10 11 14 15 17 17 18 18 18 17 16 15 15 15 15 17 15 15 16 14 15 16 17 17 18 15 15 15 16 16 14 15 13 12 11 10 10 11 11
7 8 8 9 10 9 10 9 12 15 16 17 17 17 17 17 18 15 14 15 16 14 14 13 15 14 17 17 15 15 16 15 15 15 14 16 15 15 14 10 9 10 10 10 10
7 8 8 10 10 9 10 10 10 14 16 17 17 18 16 18 18 18 16 15 15 14 12 13 13 14 17 16 17 16 15 15 15 15 16 16 17 13 12 13 11 10 11 11 10

GFSSW_925_temp_132.txt.gz
Temp
15 17 16 16 16 16 16 16 17 18 19 20 19 20 21 21 22 21 21 23 22 22 23 23 23 22 22 20 19 17 15 16 19 19 20 21 21 22 21 21 20 21 21 21 19
11 15 16 16 16 17 18 17 17 18 19 19 20 20 21 21 22 22 24 23 23 23 23 22 21 21 18 20 18 16 15 17 18 20 20 21 21 21 21 19 21 21 20 20 18
11 13 15 16 16 17 17 18 18 17 18 19 20 20 21 21 21 23 24 23 23 23 22 21 21 21 21 20 20 17 17 19 20 19 20 21 21 21 20 20 19 18 18 18 18
15 15 15 16 17 17 17 17 18 17 18 19 20 20 21 20 22 24 24 24 23 23 22 22 21 20 20 20 20 20 19 19 21 21 21 21 21 21 20 19 16 16 17 16 15
15 15 15 16 17 18 18 17 17 18 18 18 20 20 20 20 21 24 24 23 23 23 22 21 21 20 20 20 20 19 20 20 20 19 19 20 20 20 19 18 16 16 15 15 15
14 15 15 16 17 18 19 18 17 17 18 18 20 20 20 21 24 24 24 23 23 22 22 21 20 19 20 20 19 20 20 19 19 20 20 20 20 20 19 17 16 15 14 15 15
14 14 15 16 16 17 18 19 18 17 18 19 19 19 19 21 24 24 24 24 23 23 21 22 21 20 20 20 20 20 19 19 21 20 21 19 20 19 17 17 16 14 13 14 14
14 14 14 15 15 17 18 19 19 18 18 18 18 19 19 23 23 24 23 23 23 23 23 22 22 20 20 20 18 18 17 18 20 20 20 20 18 17 16 17 16 13 12 13 13
13 13 14 15 16 16 18 19 19 19 18 17 17 18 20 22 22 24 24 23 22 22 22 22 21 18 18 17 16 16 17 18 18 19 20 20 18 17 16 16 15 13 12 12 13
13 13 14 15 15 17 18 19 18 18 18 16 17 18 20 21 23 23 23 23 22 20 20 20 16 16 15 16 17 17 18 17 16 19 20 19 16 17 16 16 14 12 11 11 12
13 13 13 14 15 15 18 18 16 16 16 17 19 19 21 22 23 22 23 22 21 20 19 18 17 17 18 17 19 18 18 17 16 18 19 18 16 16 16 16 14 12 11 12 12
13 13 13 14 15 16 16 15 17 18 16 17 17 17 20 22 22 21 22 21 20 18 18 17 16 17 18 18 18 18 18 17 17 18 18 17 16 16 16 16 14 13 12 12 13
12 14 13 13 15 16 15 16 17 17 15 17 17 18 20 22 21 20 20 19 20 18 17 17 19 18 19 19 19 18 17 17 18 18 18 16 15 16 16 16 14 12 11 15 14
11 12 13 13 15 14 15 16 17 17 15 17 19 19 20 20 21 21 21 20 20 19 17 17 18 19 19 19 18 18 18 18 19 17 16 16 15 15 16 13 13 11 15 13 13
10 11 11 12 13 14 15 16 16 17 17 20 19 21 20 21 20 21 21 21 18 19 18 19 19 19 19 19 18 18 18 18 17 16 16 16 14 14 14 14 12 12 14 13 13
10 10 11 11 12 15 15 17 16 16 16 20 20 20 20 20 20 20 21 19 19 19 19 18 19 19 19 19 19 18 18 15 14 14 14 16 15 14 14 14 12 12 14 13 12
9 9 10 10 13 14 15 15 15 13 20 19 18 18 19 18 19 19 18 18 17 17 17 18 19 19 19 19 18 17 15 12 14 12 14 14 13 14 15 13 12 13 13 12 12
8 9 10 11 12 12 15 14 12 16 18 19 19 17 18 19 19 18 17 17 17 17 14 16 17 18 18 19 17 17 15 11 13 11 11 13 13 16 15 12 12 12 13 12 12
8 9 9 11 11 11 12 13 15 15 19 19 19 18 18 18 18 18 16 16 16 16 17 15 18 18 19 18 18 16 15 14 11 11 10 12 14 15 13 13 13 12 13 12 11
7 8 9 11 11 9 10 13 14 17 20 19 19 18 16 17 18 17 15 17 18 16 17 17 17 18 18 18 16 17 14 15 11 13 15 13 14 14 15 15 13 12 13 12 11
7 7 10 11 10 8 9 11 14 17 18 19 19 18 17 16 16 16 17 18 17 16 17 15 16 17 18 16 15 15 15 13 13 12 15 14 15 13 15 14 13 12 11 12 11
6 6 9 9 10 8 8 10 15 16 18 17 19 18 17 16 16 16 17 16 15 15 16 16 14 14 17 17 16 15 15 14 13 15 12 12 14 14 14 13 12 12 11 11 10
7 5 10 9 10 9 9 11 12 15 16 17 18 18 18 16 19 16 16 16 14 15 15 14 14 14 16 16 16 16 15 14 12 12 12 13 15 12 11 11 11 11 12 12 11
6 6 6 8 9 9 11 10 10 14 15 16 17 18 18 17 16 15 16 16 16 16 17 16 13 15 16 17 14 15 15 13 14 12 13 12 16 14 11 11 11 10 10 12 11
6 6 7 8 8 9 11 11 11 11 13 16 15 16 17 17 16 15 14 15 15 17 15 15 16 13 15 17 16 16 15 13 14 14 16 16 13 15 13 12 11 10 9 12 12
6 6 6 7 9 8 9 10 10 10 13 14 14 15 16 17 17 15 14 14 15 14 14 12 15 14 17 15 14 16 15 14 14 15 13 15 14 14 15 10 10 10 9 9 11
6 6 6 7 7 7 8 9 12 12 12 14 14 14 14 14 16 15 16 15 15 14 12 13 12 13 16 16 14 16 14 15 14 14 16 16 17 12 12 12 12 10 10 10 10

GFSSW_925_temp_135.txt.gz
Temp
11 14 15 16 16 17 18 18 18 18 18 18 19 19 20 21 21 21 21 23 23 22 22 22 22 22 21 19 19 18 19 19 19 19 21 21 22 23 22 22 22 22 22 21 19
11 12 15 16 16 16 17 18 18 18 19 19 19 19 20 20 21 20 23 23 23 22 22 22 20 21 20 20 19 19 18 19 20 20 21 21 21 22 22 21 22 21 21 19 18
11 11 13 15 16 17 17 17 18 18 19 19 19 19 19 19 20 22 24 23 22 23 23 22 21 21 20 20 19 18 20 19 21 20 21 21 21 21 21 21 19 18 19 18 17
11 11 13 15 16 17 17 17 17 18 19 19 19 19 19 18 21 23 23 23 23 23 22 21 20 20 19 20 19 20 20 20 21 21 20 21 21 21 20 19 18 17 17 17 18
15 13 11 14 15 16 17 17 17 17 19 19 19 19 19 18 20 24 23 23 23 23 22 21 20 19 20 20 19 19 20 20 20 20 20 20 21 21 19 18 18 17 17 17 17
14 14 15 15 15 16 17 17 17 17 17 19 19 19 17 19 23 23 23 23 23 22 21 21 20 19 19 20 20 20 20 20 20 20 20 20 20 20 18 18 17 17 16 17 17
13 14 15 15 16 16 17 17 18 18 17 19 19 18 17 20 23 23 23 23 23 23 21 21 21 20 19 19 19 19 20 20 20 20 21 20 20 20 18 18 17 16 15 16 16
13 13 14 15 15 16 17 18 18 18 17 18 19 17 18 22 22 22 23 22 22 22 22 22 21 19 20 19 18 19 18 20 21 20 20 21 20 19 17 18 17 16 16 15 15
12 13 13 14 15 16 17 18 18 18 17 18 18 17 18 21 21 23 23 23 22 21 21 21 20 18 19 19 19 17 20 18 19 19 20 20 20 19 17 17 17 16 16 16 16
13 12 12 13 14 15 17 18 17 17 17 17 16 18 19 20 22 22 22 23 21 20 20 19 17 18 17 19 20 19 19 18 18 20 19 19 19 18 17 17 16 15 16 15 15
12 13 12 12 13 14 17 17 16 16 15 17 18 19 20 22 22 21 22 22 20 20 19 18 19 19 19 18 19 18 18 18 18 18 19 18 18 19 17 17 16 16 15 15 16
12 11 13 12 13 15 16 15 14 15 14 16 16 17 20 21 21 20 21 21 20 19 18 18 18 19 18 17 18 18 18 18 18 18 19 18 19 17 17 16 15 15 15 16 15
11 11 12 14 14 15 14 15 15 15 14 17 16 17 18 21 20 20 20 18 19 17 17 18 20 18 19 18 18 18 18 17 19 18 17 17 19 17 16 15 15 16 15 15 14
10 10 11 13 14 13 14 16 16 16 15 17 18 18 19 19 20 20 20 20 19 19 16 17 18 19 18 19 18 18 17 18 18 18 19 17 19 17 16 16 15 15 15 14 13
9 10 10 11 12 12 15 16 16 16 16 19 18 19 19 21 19 19 20 20 18 18 18 19 18 18 18 19 18 19 18 17 17 17 17 17 18 19 15 16 14 15 14 14 13
9 9 10 10 11 13 14 15 16 16 15 19 19 19 19 20 19 19 20 19 18 18 18 18 18 18 19 18 18 16 17 15 15 16 17 16 17 19 17 16 13 15 14 14 13
8 9 9 10 11 13 13 13 15 13 18 19 18 18 18 18 18 19 18 18 18 18 17 18 18 19 19 17 17 17 17 17 18 17 19 15 16 19 15 14 13 14 14 13 13
8 8 9 10 11 11 12 13 13 16 18 19 18 17 18 18 18 18 17 18 16 17 15 17 18 17 17 19 18 16 17 15 17 17 17 14 16 19 15 14 13 13 13 13 12
7 8 8 10 11 10 10 12 15 15 17 18 18 18 17 18 18 17 16 16 17 16 19 16 18 17 18 17 18 16 17 15 13 12 15 15 16 16 13 13 13 13 14 13 12
7 7 7 11 10 9 9 11 13 15 18 18 20 18 17 17 18 17 15 17 18 16 17 18 18 18 17 17 15 17 15 17 14 16 18 17 16 19 16 14 13 13 14 13 12
7 5 9 10 9 9 10 11 12 14 15 17 18 18 18 16 17 16 17 18 17 15 16 15 17 17 17 17 16 16 16 14 15 15 19 19 20 16 17 15 14 13 13 13 12
6 6 9 8 9 8 10 11 12 13 16 16 16 17 18 16 16 16 17 18 15 15 17 16 15 15 17 16 15 15 16 16 18 16 14 16 19 16 15 15 14 13 12 12 12
6 5 9 9 5 8 10 11 12 12 15 15 16 18 18 17 17 16 16 16 14 16 17 15 15 16 17 17 15 16 15 14 13 14 14 18 20 13 13 13 13 12 13 12 11
5 6 5 6 6 7 9 9 10 12 12 14 13 15 17 17 16 16 15 15 13 15 17 16 13 17 19 18 15 15 14 14 16 16 15 16 18 16 14 14 12 12 13 12 12
5 6 7 5 7 6 7 8 9 10 12 13 12 12 13 16 15 15 14 14 15 17 14 16 17 14 16 16 15 16 15 14 16 16 19 17 16 18 17 15 14 12 12 13 12
6 6 6 6 7 7 7 7 7 9 11 11 11 11 13 14 15 15 14 14 15 14 14 12 16 15 16 15 15 16 15 15 16 14 16 15 16 16 15 13 13 12 12 13 12
6 7 6 7 6 5 7 8 8 7 10 11 12 13 12 12 14 14 14 15 14 14 14 13 13 14 17 14 14 16 16 14 15 14 18 17 19 14 14 13 14 13 12 12 13

GFSSW_925_temp_138.txt.gz
Temp
11 12 15 16 16 17 17 17 17 18 18 18 19 20 20 20 21 20 24 24 23 22 22 21 22 23 23 23 23 23 25 26 25 24 25 25 25 26 26 26 26 26 26 25 23
11 12 13 15 16 17 17 17 17 17 18 18 19 19 20 20 20 23 23 23 23 22 22 24 24 24 24 24 23 24 25 25 25 25 25 25 25 26 25 26 26 25 25 23 23
12 12 14 16 16 16 17 17 17 18 18 18 18 19 20 20 23 25 24 23 23 23 22 23 24 24 24 24 24 23 25 24 25 25 25 25 25 25 25 25 24 24 24 23 22
14 14 14 15 16 17 17 17 18 17 18 18 17 19 20 20 24 24 23 23 23 22 22 23 24 24 24 24 24 24 24 24 24 24 24 24 25 25 25 25 23 22 22 22 23
15 15 15 15 15 16 17 18 18 18 18 18 18 18 19 23 25 23 23 23 22 22 24 24 24 24 24 24 24 24 24 24 24 24 24 24 24 25 24 23 22 21 21 22 22
13 14 15 15 15 15 16 17 17 18 18 18 18 18 21 23 23 22 22 22 23 23 23 24 25 24 24 24 24 24 24 24 24 24 24 23 24 23 25 23 22 21 22 22 22
12 12 13 14 15 16 16 17 17 18 18 18 19 17 21 25 23 22 22 23 22 23 24 23 23 24 24 23 23 23 23 25 25 25 24 23 23 23 24 22 22 22 22 21 21
13 12 12 12 13 15 17 18 18 18 18 18 18 18 23 22 21 21 22 22 22 22 23 22 22 23 24 23 23 23 23 24 25 24 24 23 24 25 23 23 23 23 23 21 22
13 13 12 12 12 14 16 18 18 17 17 17 17 20 24 21 21 22 23 24 23 22 22 22 23 23 22 23 24 23 25 24 24 24 24 23 24 24 23 22 23 23 22 22 22
12 12 13 13 13 14 16 19 17 17 16 16 17 20 22 23 23 22 22 23 23 23 23 23 23 23 23 24 25 25 24 24 24 24 23 23 24 25 23 22 22 22 22 22 21
11 11 12 14 14 14 17 17 20 20 18 23 23 23 23 22 21 22 23 23 24 24 23 22 23 24 25 25 25 24 24 24 24 24 22 23 24 24 24 22 21 21 21 21 21
11 11 12 13 14 14 16 19 16 15 18 20 20 21 21 22 23 23 23 24 23 23 23 22 23 25 24 23 22 23 23 24 24 22 22 24 23 24 22 21 20 20 20 19 19
10 10 11 13 14 14 14 15 13 13 18 21 21 22 22 22 24 24 23 25 24 23 23 24 24 22 22 22 22 23 23 24 23 22 22 21 23 22 20 20 19 20 19 19 17
9 10 11 12 14 12 16 14 14 14 20 23 20 22 21 23 22 25 23 24 23 23 23 23 25 22 22 22 23 23 23 22 22 21 23 22 24 23 22 21 20 20 19 18 15
9 9 10 11 10 14 13 14 14 16 20 23 20 20 22 23 23 21 23 23 24 23 22 24 22 21 21 23 23 23 21 21 21 22 21 22 22 25 21 21 21 19 18 17 15
8 9 9 10 10 11 12 14 15 19 20 22 21 20 21 22 21 21 22 23 24 23 21 24 21 22 23 21 22 20 21 20 20 21 22 23 22 25 23 22 20 19 18 16 15
8 8 9 9 12 11 12 14 18 19 21 22 21 20 21 22 21 21 21 21 23 21 22 22 22 22 22 21 20 21 22 21 21 20 23 20 20 24 22 19 19 18 18 16 15
8 8 9 9 10 10 11 14 15 21 21 20 20 20 20 21 22 21 21 22 23 23 22 23 22 21 22 23 23 21 23 21 20 22 22 18 20 23 21 19 18 17 17 16 14
7 8 8 10 10 9 11 11 17 19 21 21 21 20 20 20 21 20 21 22 23 22 23 23 23 21 21 21 23 20 20 22 19 17 20 21 22 19 18 18 17 17 17 16 14
7 8 9 9 9 10 11 12 16 19 19 19 19 21 21 20 19 20 21 23 22 22 25 24 22 20 19 21 19 22 21 20 21 19 22 24 23 25 18 19 18 17 18 17 16
7 9 10 9 9 10 10 13 15 16 16 15 19 20 21 22 20 20 21 21 21 20 23 23 23 20 20 20 22 19 21 21 22 21 24 25 26 24 23 21 20 19 18 17 16
8 8 9 9 10 11 11 12 14 15 16 15 16 17 18 20 19 20 21 22 20 20 20 23 24 22 21 20 20 23 23 23 23 22 22 22 25 22 23 21 20 19 17 17 16
8 9 9 9 9 10 12 12 13 13 14 14 14 17 18 18 18 19 21 18 17 19 21 20 22 22 20 20 19 20 21 22 22 21 22 23 25 21 21 20 20 18 17 17 16
7 8 9 9 11 10 11 12 12 13 12 13 14 14 14 15 17 19 18 16 16 19 20 21 22 24 24 25 23 20 21 21 22 23 24 23 24 19 19 19 19 18 18 18 16
6 8 10 8 8 9 10 10 10 11 12 11 12 14 13 11 14 15 17 16 16 17 18 21 22 23 23 21 21 22 21 20 21 23 23 26 23 25 21 20 19 18 17 17 16
5 8 9 9 10 10 9 10 10 11 11 11 9 8 13 13 13 15 13 15 16 16 17 18 22 21 22 20 21 21 21 21 21 23 23 23 22 25 25 22 20 18 17 16 17
5 8 9 9 8 7 8 9 10 11 11 12 11 11 11 13 15 16 13 13 13 13 15 19 20 20 22 20 19 20 21 20 21 22 23 21 23 23 21 21 20 19 18 17 17

GFSSW_925_temp_141.txt.gz
Temp
14 16 17 16 16 17 17 18 18 18 18 18 18 19 19 19 20 21 25 25 23 23 22 23 23 24 25 25 25 26 26 28 28 27 28 28 27 28 28 28 28 29 28 28 26
11 12 14 16 16 17 17 18 18 18 18 18 19 19 20 19 19 25 25 24 23 23 23 24 25 25 26 26 25 25 26 28 27 28 27 27 27 28 27 28 28 28 28 27 26
11 13 14 15 15 16 17 18 18 18 18 18 18 19 19 19 23 27 25 24 23 23 24 25 26 26 26 26 26 26 26 27 27 27 27 27 27 27 27 27 28 27 27 27 26
14 14 14 15 15 16 16 17 18 18 18 18 18 19 19 19 25 26 24 24 23 24 25 25 26 25 25 25 27 25 27 27 27 26 26 26 27 27 27 27 27 26 26 26 26
13 13 13 14 14 15 15 16 17 18 18 18 18 18 19 24 26 24 23 23 23 24 25 26 26 26 25 27 27 26 27 27 27 26 26 26 26 26 27 28 26 25 24 25 25
13 13 13 13 13 14 15 16 17 18 18 19 18 18 19 24 25 24 23 23 24 24 26 26 26 27 26 26 26 27 26 27 27 26 27 26 26 27 27 28 26 25 25 25 25
14 14 13 13 13 15 16 17 17 18 19 18 18 17 23 26 25 25 24 24 24 25 26 26 26 26 27 26 27 26 25 27 27 27 26 26 25 26 27 27 26 25 25 25 24
12 13 14 13 13 14 16 16 18 18 18 18 18 18 24 24 24 24 24 25 24 25 25 25 25 25 25 26 26 25 27 26 28 26 26 25 25 28 28 26 25 26 26 26 25
11 11 12 14 14 14 15 18 18 18 17 18 18 21 25 22 23 24 24 25 25 25 24 24 24 25 25 24 26 27 26 27 27 27 26 25 25 28 26 26 25 26 26 26 25
11 11 12 13 14 15 16 18 17 17 17 17 20 22 24 25 25 25 25 25 25 25 24 24 25 24 25 26 25 27 27 27 26 27 25 25 26 27 28 25 25 26 26 25 25
11 12 12 13 14 15 16 19 21 21 20 24 25 25 26 25 24 25 25 25 26 25 24 25 24 24 26 27 27 27 26 26 27 28 25 25 26 27 27 26 25 25 25 24 23
11 11 12 13 14 15 16 20 17 16 18 23 24 24 25 25 25 26 25 25 24 24 25 25 23 26 27 27 25 25 25 26 27 27 25 25 26 27 27 26 25 24 23 22 22
10 10 11 13 14 15 16 16 16 16 19 23 24 24 25 24 25 26 26 25 25 24 26 25 27 26 26 25 24 25 25 26 26 26 26 25 25 26 26 24 23 23 22 22 19
9 10 10 12 14 14 17 15 16 16 19 24 23 24 25 25 23 27 25 26 26 25 26 26 26 25 24 24 25 24 26 25 24 24 24 25 24 27 25 23 22 23 22 21 18
9 9 10 11 11 14 13 14 15 18 20 26 23 23 25 24 26 25 26 26 25 25 26 25 25 24 24 24 25 24 24 24 24 23 24 25 24 27 26 24 24 23 21 20 18
9 9 10 11 12 13 12 13 16 19 20 24 23 22 22 23 25 23 25 26 26 25 25 26 25 25 25 25 25 24 23 23 23 23 23 26 24 28 26 25 24 22 21 19 17
8 8 9 10 13 12 12 15 18 19 24 25 23 23 23 23 24 23 23 23 23 22 23 24 24 24 24 23 23 23 23 22 23 22 24 24 23 26 25 23 23 22 21 19 18
8 8 9 10 11 11 13 15 17 22 23 24 23 23 22 24 23 23 23 23 24 24 25 23 23 25 24 24 24 23 24 22 18 23 24 21 21 25 26 23 21 21 21 18 16
8 9 10 10 11 11 14 14 19 21 22 22 22 22 22 23 23 23 23 24 25 24 23 25 25 25 24 25 26 24 22 25 23 23 22 23 24 23 23 22 20 20 19 18 17
9 10 11 11 11 12 13 14 18 20 20 19 19 22 21 22 21 22 23 24 24 25 26 25 24 23 22 24 24 24 25 22 22 20 23 27 26 27 21 22 21 20 20 19 17
9 10 13 11 11 12 12 13 16 18 18 17 17 19 22 22 23 22 23 24 25 25 25 24 24 22 21 21 23 22 23 23 25 24 25 26 28 28 25 24 23 21 21 20 18
8 8 13 11 11 13 11 14 15 16 18 17 15 17 17 20 21 22 22 24 24 24 22 23 24 23 21 24 25 25 24 25 24 24 24 25 26 26 27 25 24 22 21 20 19
7 8 11 11 10 11 13 14 15 15 15 15 15 16 17 15 17 20 21 23 21 21 21 22 23 23 23 22 22 22 24 25 25 26 24 24 26 26 25 24 24 22 20 20 19
5 7 10 9 13 13 13 14 14 16 15 14 13 15 16 14 16 15 19 19 17 19 19 21 22 23 24 24 24 21 23 24 25 24 24 26 26 23 23 23 23 22 21 20 18
6 5 9 8 10 12 13 13 13 13 15 15 14 14 14 14 15 15 16 18 18 17 17 20 19 23 25 26 26 24 23 23 23 25 25 27 27 27 24 23 23 22 21 20 19
5 4 8 10 11 12 12 12 12 13 13 13 13 13 13 10 11 14 14 13 13 15 17 18 19 22 23 24 23 23 24 24 24 24 25 26 26 27 26 25 23 22 21 20 19
5 4 5 8 10 11 11 12 12 13 13 14 13 13 13 13 13 13 11 11 12 12 13 15 18 20 21 24 22 21 23 24 24 24 25 25 26 27 26 24 24 22 21 20 20

GFSSW_925_temp_147.txt.gz
Temp
15 15 16 16 16 16 16 17 17 17 18 18 18 19 19 19 20 20 19 24 24 23 23 23 23 24 24 23 24 24 20 20 23 24 25 26 26 26 26 26 26 27 25 24 25
13 13 14 14 14 15 17 17 17 17 17 18 19 18 18 19 18 19 24 24 24 23 23 23 22 24 21 22 22 20 19 23 25 25 25 25 26 25 25 25 25 25 23 25 25
13 13 13 13 13 14 16 17 17 17 18 19 19 19 18 18 17 22 25 23 24 24 24 24 24 24 23 23 22 22 20 24 25 25 25 24 24 26 25 24 24 24 23 24 25
12 13 13 13 14 14 15 16 16 17 17 18 19 19 18 18 22 25 26 24 24 24 23 24 23 22 22 22 22 22 23 24 24 25 25 24 24 23 24 23 24 23 24 24 24
12 12 12 14 14 14 15 15 16 17 17 18 18 18 19 18 19 24 24 24 24 23 23 23 22 22 21 23 23 22 23 24 24 24 24 24 23 23 23 23 24 23 23 23 23
12 12 13 14 14 14 15 15 16 16 17 18 18 18 17 18 24 25 24 23 24 23 24 24 23 23 22 23 23 24 24 23 24 24 24 23 22 22 23 23 23 23 21 22 22
12 13 13 14 14 15 16 16 17 17 17 18 17 17 17 19 24 25 24 23 24 24 23 25 25 24 22 22 23 24 23 22 22 23 23 23 22 22 23 22 22 21 20 21 21
12 12 13 13 13 14 15 17 18 18 18 18 17 15 16 24 24 23 23 23 24 24 25 25 25 24 23 22 22 22 21 20 22 23 23 23 20 21 22 21 21 20 19 20 21
11 11 12 13 14 15 16 17 18 19 18 17 16 16 17 23 23 24 24 24 24 25 25 25 24 22 22 20 18 20 19 20 21 24 23 22 20 22 23 24 22 20 20 20 19
11 11 12 12 13 15 16 18 19 18 17 16 16 17 19 22 24 25 25 25 23 23 23 23 21 19 18 17 17 19 20 22 22 23 22 21 20 20 22 22 21 20 20 21 16
11 11 11 12 14 15 15 17 15 16 17 18 18 19 22 24 25 24 25 24 23 21 19 20 18 17 18 19 20 21 20 21 22 24 23 21 20 21 21 21 20 19 19 17 15
9 10 11 12 14 15 15 15 14 14 13 17 17 18 20 22 22 23 25 22 21 20 20 19 18 19 21 21 21 21 21 21 22 24 23 22 21 21 21 21 20 19 17 15 14
9 9 10 12 14 14 13 13 14 14 13 16 18 19 20 21 20 22 23 22 20 19 19 19 20 22 22 22 22 21 22 21 21 22 22 21 19 21 22 20 19 17 15 14 14
9 9 10 11 13 12 14 13 14 13 11 16 19 20 22 22 20 23 24 23 21 20 20 19 22 22 22 22 22 21 22 23 22 21 19 20 16 19 21 19 18 16 14 13 14
10 10 10 10 10 11 12 13 14 14 14 22 21 23 23 21 23 22 24 22 21 21 20 20 22 21 22 23 23 21 23 23 23 20 19 20 18 17 19 18 17 16 14 13 13
9 9 9 10 9 11 11 13 13 14 14 20 21 21 21 21 22 23 22 22 22 20 21 21 23 23 22 24 23 22 22 22 21 18 16 18 18 17 18 18 18 16 15 14 13
8 9 8 9 9 11 11 11 13 13 19 22 22 21 20 21 21 22 22 20 20 19 19 20 21 22 24 22 23 21 18 13 17 14 15 19 18 19 20 19 20 17 15 14 13
8 8 8 9 10 11 11 12 12 16 18 21 19 20 20 21 20 21 20 18 19 20 19 18 19 21 22 21 20 19 18 14 16 14 15 19 17 20 20 18 18 17 15 14 13
8 8 8 10 11 11 9 10 13 15 19 17 17 18 19 20 20 19 19 20 20 21 19 19 19 22 23 22 22 19 19 18 18 17 15 16 19 21 18 17 17 16 15 13 13
7 7 8 10 10 11 8 11 13 17 16 15 14 17 17 17 17 17 18 21 21 20 21 20 19 22 22 21 21 19 19 18 16 17 17 17 18 19 17 17 16 15 14 14 13
7 5 9 11 10 9 7 8 12 14 15 15 15 15 15 15 16 15 16 17 17 18 20 21 20 20 21 19 20 19 19 19 17 16 16 18 18 20 19 18 17 15 15 14 14
6 5 10 9 7 7 7 10 12 12 13 13 14 14 13 13 14 14 15 15 15 15 14 16 19 19 19 20 21 21 21 20 15 18 16 17 18 21 18 18 17 16 15 14 14
5 4 8 9 6 7 8 9 10 11 12 12 12 13 13 13 13 14 14 16 14 14 13 15 14 18 18 18 18 18 19 20 20 18 17 17 19 19 17 17 17 16 15 15 13
5 5 4 5 6 6 8 8 7 12 12 13 13 13 11 12 12 12 13 14 14 13 15 13 13 15 18 19 18 18 19 20 20 20 19 18 20 21 18 17 16 16 15 14 13
5 5 6 3 5 6 7 8 8 8 11 12 12 13 12 11 11 11 12 12 13 13 12 12 10 13 15 19 20 20 20 20 20 20 19 21 21 20 18 17 17 17 15 13 12
4 4 4 4 5 5 5 7 7 7 10 10 12 12 11 10 11 11 12 11 10 10 11 11 11 11 12 17 18 19 19 19 20 21 20 21 20 23 21 16 16 16 15 13 12
5 4 4 5 5 4 5 7 8 9 7 8 11 12 11 12 13 11 10 10 10 9 10 9 10 11 13 14 16 16 19 20 20 20 21 20 22 22 19 20 18 17 17 15 13

GFSSW_925_temp_150.txt.gz
Temp
13 13 13 13 13 13 14 15 16 16 17 18 19 19 18 19 20 19 18 24 23 23 22 23 23 23 23 22 23 21 19 19 22 24 25 25 25 25 26 25 25 26 21 23 25
13 13 13 13 14 14 14 15 16 16 16 17 18 18 18 18 18 17 25 24 24 23 22 22 22 23 20 22 21 19 18 21 24 25 24 24 25 25 25 24 24 24 22 23 23
12 12 12 14 14 15 15 15 15 16 16 17 18 18 18 18 16 21 25 24 24 23 24 23 23 22 22 21 21 20 19 22 24 25 24 24 24 24 23 23 22 24 22 22 22
12 13 14 14 15 15 15 16 16 16 16 17 18 18 18 17 22 25 26 24 23 23 23 23 22 21 21 21 21 21 21 22 23 24 24 24 24 23 23 23 23 21 21 22 22
13 13 13 14 14 15 15 16 16 16 16 17 18 18 17 17 18 25 25 24 23 23 23 22 21 21 21 21 22 21 21 22 23 22 23 24 23 22 22 22 22 21 21 21 21
11 12 13 13 14 14 15 16 17 17 17 17 18 17 16 18 24 24 24 23 23 23 23 22 22 21 22 21 20 22 22 22 23 23 22 22 22 21 22 21 22 21 20 20 20
11 12 12 13 14 14 16 16 17 17 17 17 17 16 15 18 24 24 23 24 23 23 22 23 23 23 22 22 22 22 22 20 21 22 22 22 21 21 22 22 22 20 19 19 20
10 11 12 12 13 15 16 16 17 18 18 18 17 15 15 22 22 22 22 22 23 23 24 24 24 22 22 22 20 21 20 20 21 22 22 23 19 21 21 20 20 18 17 19 19
10 11 11 12 13 15 15 17 18 18 17 17 16 15 16 22 21 23 22 22 23 23 23 24 24 21 21 19 17 18 18 18 20 22 22 21 20 21 21 20 21 18 17 18 16
11 11 12 13 13 14 16 18 17 17 16 15 15 16 18 21 23 23 23 23 22 22 22 22 19 18 16 16 16 18 18 19 20 23 22 20 19 20 20 21 20 19 17 16 15
10 10 11 12 13 14 16 16 13 14 14 16 17 17 19 23 23 23 23 22 22 21 18 20 18 16 17 17 19 20 20 19 19 21 21 20 20 20 20 19 18 17 16 14 14
10 10 10 12 13 14 14 12 12 12 11 15 15 16 18 19 19 22 23 21 20 19 18 19 17 18 19 19 19 19 18 18 19 21 21 20 19 19 20 20 19 19 14 13 13
10 10 10 12 13 14 11 11 12 12 11 14 16 17 17 18 18 20 21 20 20 18 18 18 19 20 19 19 19 19 18 19 20 21 20 21 19 19 20 19 17 16 15 13 13
10 10 10 11 13 11 12 12 13 12 11 15 17 18 20 19 18 22 22 21 20 19 18 18 21 20 19 19 20 18 20 21 21 20 18 20 17 18 20 18 16 13 13 13 13
9 9 9 10 9 9 11 12 13 12 14 21 19 22 20 20 22 20 23 20 20 19 19 19 20 19 19 20 20 20 21 21 22 20 18 19 18 17 18 17 15 13 12 12 12
9 10 9 10 10 11 11 12 13 13 14 19 21 21 19 20 21 22 21 22 21 20 19 20 21 21 20 22 21 22 21 17 16 16 16 17 17 16 17 17 16 13 13 13 12
8 9 9 9 9 11 10 10 13 12 18 20 20 20 20 20 20 21 20 20 19 18 18 20 20 21 22 22 22 20 18 14 16 14 15 17 16 17 19 18 18 15 13 12 12
7 8 8 9 11 10 10 12 12 16 16 19 17 18 19 20 19 20 19 18 18 19 17 18 16 20 21 21 20 18 17 14 15 13 14 17 16 18 18 17 18 16 14 13 12
7 7 7 10 10 10 8 9 11 14 17 15 16 17 17 19 18 18 17 17 18 19 19 17 17 20 21 22 22 18 17 18 16 15 14 15 18 19 16 15 15 14 13 13 12
6 6 7 9 9 9 6 9 11 15 14 14 13 15 15 14 15 14 16 15 18 18 20 19 18 20 20 20 20 19 18 17 14 16 16 16 17 19 17 14 14 14 13 13 12
6 4 9 9 9 7 7 6 10 13 13 13 13 13 13 13 14 14 15 15 15 15 15 17 18 19 19 18 18 18 18 18 16 14 15 17 17 17 18 16 15 14 13 13 13
5 4 8 8 6 7 8 9 11 11 11 11 12 12 12 12 12 12 14 15 14 14 12 13 12 17 19 20 19 21 20 17 15 16 14 15 17 20 18 17 16 14 13 13 13
5 5 8 8 5 3 6 7 7 7 9 10 11 11 12 11 11 12 13 15 13 13 11 11 12 13 17 17 18 18 19 19 16 15 16 15 17 18 16 15 15 14 13 13 13
3 5 5 4 4 5 6 6 7 9 8 9 8 10 10 10 11 11 12 13 13 13 14 12 11 11 13 14 13 17 18 19 18 18 18 17 19 21 17 15 14 14 13 13 12
2 2 5 5 4 5 5 7 7 7 9 9 9 8 9 9 10 10 11 11 12 12 13 12 11 10 10 12 13 14 17 19 18 19 18 20 19 21 19 15 15 15 13 13 12
0 2 4 3 4 3 5 5 6 7 8 8 8 9 6 7 10 11 10 10 10 10 10 10 11 11 10 13 13 14 16 19 19 19 19 19 18 21 21 16 15 14 14 13 12
4 4 3 4 4 4 5 6 7 7 8 8 8 8 6 6 9 11 9 9 9 8 8 9 9 10 10 12 11 12 14 17 18 18 19 18 20 21 19 17 17 15 14 13 13